Tracking 35237 objects as of 5-Sep-2026
HD Live streaming from Space Station
objects crossing your sky now

ENSHI XIDA SHANQUAN

Track ENSHI XIDA SHANQUAN now!
10-day predictions


NORAD ID: 64962
Int'l Code: 2025-160A
Launch date: July 29, 2025
Source: People's Republic of China (PRC)
Launch site: Jiuquan Satellite Launch Center, China (JSC)
Your satellite tracking list
Your tracking list is empty




NASA's NSSDC Master Catalog

Two Line Element Set (TLE):
1 64962U 25160A   26248.31803524  .00027320  00000-0  53248-3 0  9998
2 64962  97.3564 327.2343 0005038 265.0437  95.0238 15.47493814 61785
Source of the keplerian elements: AFSPC